Dewpoint
26 15 15 15 19 21 23 23 21 19 25 23 22 20 18 17 17 19 22 25 25 20 19 18 18 19 18 18 16 15 16 18 18 17 18 19 19 20 21 21 22 22 23 27 26 25 25 24 23 23 22 21 21 21 21 22 22 22 22 22 21 22 22 23 24 24 23 22 23 22 21 20 18 19 20 20 21 20 18 19 18 18 17 17 18 21
27 20 22 22 21 21 24 25 26 22 24 19 16 15 15 19 13 17 23 27 28 19 19 19 17 18 16 16 18 19 19 18 17 17 17 18 19 20 21 21 21 21 23 22 21 22 24 23 23 22 22 24 20 21 21 21 21 22 22 22 21 22 22 22 24 25 25 24 23 22 22 21 20 19 18 19 18 19 20 20 19 18 17 16 16 20
20 20 23 24 24 24 24 25 24 19 18 19 13 15 13 15 20 21 23 26 27 21 18 18 14 16 15 17 19 19 19 19 18 18 17 17 18 18 19 19 20 19 19 19 20 21 21 24 24 22 22 22 22 21 21 21 21 22 21 22 22 22 22 22 25 26 24 24 24 22 22 20 20 19 17 16 19 19 20 19 19 19 17 17 16 17
20 25 25 26 25 22 22 24 22 22 22 16 15 13 12 20 14 14 21 24 24 17 18 18 16 19 17 17 17 18 18 18 20 20 21 21 19 19 19 20 20 20 20 20 20 20 21 21 22 23 23 22 23 22 21 22 22 23 25 22 22 23 23 23 24 27 24 25 26 25 24 23 21 20 25 22 18 16 16 16 18 18 18 17 16 16
20 25 22 25 26 22 19 22 21 19 16 23 20 18 16 18 17 17 17 21 22 20 22 18 15 15 16 15 15 17 19 18 19 18 19 20 22 22 22 22 22 20 20 20 20 20 21 21 22 23 24 24 23 22 21 22 22 22 22 22 22 23 23 23 26 22 24 24 21 21 21 22 21 21 20 19 19 18 19 21 18 16 17 17 17 16
24 25 26 25 21 23 19 19 21 21 16 19 21 19 18 19 17 17 19 14 12 9 19 15 8 10 14 16 16 17 17 17 18 18 18 18 19 20 19 20 21 23 23 21 21 21 22 21 21 22 23 23 22 21 22 22 23 22 22 23 23 24 24 23 24 24 25 22 20 20 20 19 20 19 19 19 18 18 18 17 16 16 16 16 17 17
21 25 27 26 24 23 23 19 20 21 17 12 17 22 20 18 16 17 16 13 7 3 14 19 3 2 14 14 16 16 16 16 17 17 17 17 18 19 19 20 20 20 21 22 22 22 20 21 20 20 21 22 23 22 24 24 23 23 23 24 23 23 24 25 24 24 25 21 20 20 20 20 19 19 19 18 18 18 17 18 16 16 14 16 15 15
23 23 21 22 21 22 19 16 19 20 15 15 19 22 18 18 15 16 14 11 14 20 20 19 10 3 5 14 16 17 16 16 16 17 17 17 17 18 19 21 21 22 22 22 23 22 21 21 20 18 18 19 19 23 24 24 22 22 22 23 24 25 26 25 25 24 24 22 21 21 20 22 21 20 18 18 18 18 20 20 19 18 16 13 14 14
26 20 22 21 21 19 15 18 18 20 13 17 20 21 19 19 18 19 15 15 16 12 12 13 16 8 8 14 15 17 13 15 16 17 18 18 18 18 19 20 20 21 22 21 20 20 20 18 19 18 17 17 18 21 24 23 21 22 24 25 25 23 23 23 24 26 24 24 24 22 21 20 21 20 20 21 23 23 20 18 17 16 16 14 12 13
26 20 22 22 18 16 21 20 18 18 14 19 23 23 22 21 20 18 14 13 11 8 5 11 17 4 8 14 14 16 14 13 15 17 17 18 18 18 18 18 18 18 17 18 20 18 17 18 17 18 17 18 20 22 24 23 23 22 22 23 23 22 22 23 23 23 23 22 23 21 21 20 19 20 19 19 19 18 18 17 17 16 15 14 12 10
24 31 30 23 19 19 19 18 21 21 19 23 21 17 20 19 19 17 16 12 9 2 10 14 16 9 4 13 14 14 12 14 15 15 16 17 18 18 18 17 19 19 17 17 17 17 16 17 17 18 18 20 20 19 19 20 20 20 21 22 22 22 22 23 22 23 22 22 21 21 20 20 19 19 19 18 18 17 17 16 16 15 15 14 12 12
26 25 21 23 28 26 20 20 24 24 22 19 17 15 10 12 13 13 11 10 1 -1 5 10 14 10 4 8 14 16 16 15 15 13 15 16 17 17 16 16 17 17 17 17 17 17 17 18 18 18 18 19 18 18 18 18 19 20 20 20 21 21 21 22 22 21 21 21 21 21 20 19 19 18 18 18 17 17 16 16 15 15 14 14 12 10
22 23 25 26 29 20 22 14 17 22 20 19 15 12 2 1 -1 -8 2 -3 0 1 6 8 11 5 12 13 16 15 16 16 17 18 16 16 17 18 16 16 17 18 17 16 16 17 18 18 18 18 18 18 18 18 18 18 19 19 19 20 21 20 20 21 21 21 21 20 20 20 20 19 20 19 19 18 17 17 16 16 15 14 14 13 12 10
11 21 23 24 23 26 17 10 8 8 12 12 11 8 -0 -5 -8 -8 -4 -2 -1 6 11 8 8 8 13 14 16 14 17 19 18 19 19 17 17 16 16 16 16 17 17 17 17 18 18 18 18 18 18 17 17 17 18 18 19 19 20 20 20 20 20 20 20 20 20 20 20 20 19 19 19 18 18 18 17 17 16 16 15 14 14 13 13 12
0 8 16 20 16 21 20 11 11 11 12 13 15 10 3 1 -4 -5 -5 -6 -5 4 7 11 2 4 9 11 16 17 18 16 15 16 18 19 18 16 16 16 17 17 16 17 17 18 17 17 17 17 17 17 17 17 18 18 19 19 19 20 19 19 19 20 20 20 20 20 20 19 19 18 18 18 19 18 19 18 16 15 14 14 14 13 12 12
9 9 13 22 19 19 21 23 20 17 11 15 16 18 9 2 12 -0 -2 -2 -2 1 3 4 4 11 13 18 19 17 14 13 14 14 15 16 16 15 15 17 18 17 16 17 17 17 16 16 16 16 16 16 17 17 17 16 18 19 19 19 18 17 17 17 18 18 20 20 18 17 16 17 18 19 18 18 18 17 16 16 15 14 14 13 13 12
11 2 16 21 21 15 16 19 20 18 1 7 9 4 8 16 9 2 9 11 7 1 -1 3 12 14 15 15 15 14 13 13 14 14 15 15 15 14 14 16 15 15 16 17 17 16 16 15 15 15 15 15 15 15 15 15 15 15 13 12 10 11 11 12 16 18 18 16 15 15 15 15 15 15 15 16 17 18 17 15 14 13 13 13 13 12
2 3 16 17 15 20 19 22 21 20 16 10 5 12 18 18 16 9 -1 -2 -5 -1 2 8 8 9 8 7 13 12 11 12 12 14 15 13 14 13 13 13 12 14 16 17 16 16 15 15 15 13 14 13 13 12 10 9 8 9 9 10 11 10 11 13 14 13 13 11 11 12 12 11 11 11 11 13 17 18 17 16 16 16 15 14 13 13
10 4 9 14 15 18 21 19 16 20 21 12 10 17 8 0 4 8 2 -3 -0 -3 -1 5 6 8 7 10 12 10 11 11 11 12 13 12 11 12 12 11 10 13 17 17 15 15 15 14 13 12 11 10 9 8 7 6 8 9 9 10 12 11 11 10 10 9 8 7 8 9 8 6 6 6 9 11 12 15 14 14 13 12 11 9 9 11
14 1 8 14 15 16 13 16 7 13 18 20 19 13 17 12 1 1 2 2 5 -4 -2 2 1 4 9 10 11 10 11 11 10 10 10 10 11 11 12 11 9 13 16 15 15 14 13 12 11 10 9 7 6 6 6 7 9 8 8 8 10 8 6 7 7 5 3 4 4 4 2 1 2 4 8 11 8 6 7 7 8 8 9 9 9 8
12 8 -1 7 15 13 5 12 10 13 6 11 12 9 10 5 14 12 5 4 5 -5 -6 -4 1 4 11 11 11 11 11 11 11 10 9 10 10 12 12 10 10 14 16 14 14 12 11 9 9 8 7 6 6 7 7 7 8 8 6 5 5 3 3 5 3 2 1 3 2 -0 -2 -2 -1 3 6 4 4 5 3 1 3 2 4 8 11 13
8 10 5 10 6 6 8 12 12 14 12 10 13 8 9 5 4 1 6 3 4 4 4 2 6 7 11 12 12 11 10 10 10 9 9 10 11 12 10 9 10 16 15 12 11 9 8 7 7 6 6 6 6 6 5 6 8 5 1 2 2 2 4 1 -0 1 2 -0 -1 -2 -2 -2 -0 3 4 4 2 2 0 0 -1 -2 1 6 12 12
13 13 8 6 7 8 9 12 16 16 16 15 13 12 14 8 4 -0 1 6 4 5 8 10 7 8 12 11 11 11 10 9 9 10 10 11 12 11 9 10 12 15 12 10 8 8 6 6 6 5 6 5 5 5 4 4 5 2 -1 -1 -1 0 -2 -2 -1 1 -0 -1 -2 -2 -2 -1 1 3 3 1 1 0 -1 -3 -5 -4 -0 5 9 9
24 4 2 8 10 11 11 13 14 16 18 13 13 16 14 8 8 6 6 5 7 6 7 7 6 8 12 11 9 10 10 10 9 10 11 12 12 10 8 11 14 12 10 9 7 7 6 5 5 4 4 5 5 3 2 2 1 -1 -2 -2 -2 -3 -3 -3 -1 -0 -1 -1 -3 -3 -1 0 2 3 1 -2 -2 -5 -7 -8 -6 -4 -3 3 9 12
3 6 6 0 -3 8 6 10 12 14 14 12 11 14 15 11 8 7 6 5 6 3 8 3 0 3 13 12 9 9 7 7 7 9 12 12 10 7 9 13 12 11 9 6 5 5 4 3 3 3 4 4 1 1 1 -1 -2 -3 -3 -4 -4 -4 -3 -2 -1 -1 -1 -3 -4 -2 -0 2 -0 -4 -5 -5 -7 -8 -8 -7 -6 -3 1 7 10 8
6 8 4 -1 -3 -4 -4 -4 2 7 10 12 17 14 13 10 9 10 4 4 3 4 9 2 0 11 12 11 8 8 7 7 7 9 11 11 9 6 10 11 10 9 5 4 4 4 2 2 2 4 3 0 -1 0 -0 -3 -4 -4 -4 -5 -4 -4 -3 -2 -2 -2 -4 -5 -4 -1 1 -4 -7 -8 -8 -7 -8 -8 -7 -5 -3 -1 4 8 5 4
9 13 10 7 4 5 9 10 11 18 12 9 9 10 10 8 6 4 2 0 3 2 4 6 8 7 6 7 7 7 7 6 7 8 10 10 8 6 12 10 9 6 4 4 4 2 0 0 3 2 -1 -2 -1 -1 -3 -4 -4 -5 -5 -5 -5 -4 -2 -4 -4 -4 -6 -6 -1 -3 -6 -8 -8 -8 -9 -8 -8 -7 -5 -3 -1 1 6 6 5 4
7 7 12 15 10 12 12 14 14 17 10 7 5 6 7 6 4 6 3 1 6 -3 -2 5 7 6 7 7 7 8 7 7 7 8 10 9 6 7 10 8 10 4 4 4 2 -1 -1 1 -0 -2 -3 -3 -2 -2 -3 -4 -4 -5 -5 -6 -5 -3 -5 -5 -6 -8 -8 -8 -6 -7 -9 -10 -11 -10 -10 -10 -10 -9 -6 -1 2 2 3 4 3 4
7 6 8 10 8 11 13 14 8 6 6 6 7 7 6 6 6 1 2 5 4 -2 2 5 8 8 7 7 8 8 8 7 7 8 9 8 5 8 7 5 4 4 3 1 -2 -3 0 -1 -2 -3 -3 -3 -2 -3 -3 -4 -4 -5 -6 -6 -5 -7 -7 -6 -8 -8 -8 -7 -7 -9 -10 -11 -11 -10 -12 -9 -10 -10 -4 -2 -4 -3 -5 -8 -9 -9
10 6 8 10 11 13 12 11 6 6 6 7 7 8 8 8 6 4 5 6 7 5 8 9 9 9 7 8 8 9 8 7 6 8 7 4 5 6 5 4 1 -0 -1 -3 -4 -1 -1 -2 -3 -4 -3 -3 -3 -3 -4 -5 -7 -7 -8 -8 -8 -8 -7 -7 -8 -8 -7 -8 -10 -10 -11 -11 -11 -11 -11 -10 -9 -6 -8 -10 -10 -10 -13 -13 -14 -14
9 7 16 9 6 8 9 7 7 6 7 7 7 8 9 9 8 7 5 8 8 5 9 7 6 6 10 9 9 9 7 6 6 5 4 3 6 4 2 -0 -3 -3 -3 -4 -2 -1 -2 -3 -3 -3 -3 -3 -3 -3 -4 -5 -6 -8 -8 -8 -8 -8 -8 -8 -8 -8 -8 -9 -10 -11 -11 -12 -12 -11 -10 -8 -10 -13 -14 -15 -16 -16 -15 -14 -14 -12
12 11 6 4 6 7 11 7 7 7 7 7 8 8 9 8 6 8 2 9 6 4 5 3 2 5 9 9 8 6 5 5 4 4 2 4 3 1 -1 -3 -4 -4 -4 -4 -2 -1 -2 -3 -3 -3 -3 -3 -4 -4 -5 -6 -7 -8 -8 -8 -8 -8 -8 -8 -8 -9 -9 -9 -10 -11 -12 -12 -11 -10 -10 -13 -16 -16 -15 -15 -14 -14 -13 -11 -9 -7
10 9 8 7 4 1 12 8 7 8 7 1 3 9 8 9 8 8 9 9 8 8 2 1 5 9 8 8 5 5 5 5 4 2 1 3 0 -1 -2 -3 -5 -4 -4 -4 -2 -1 -3 -3 -3 -3 -3 -4 -4 -4 -6 -7 -7 -8 -8 -8 -8 -8 -7 -8 -9 -10 -10 -10 -10 -11 -11 -12 -13 -13 -14 -14 -15 -15 -15 -14 -13 -12 -10 -8 -6 -9
9 9 10 8 6 2 5 10 10 5 -0 -3 10 11 10 9 8 7 8 8 10 9 8 9 9 8 7 6 5 5 5 4 3 1 4 -1 -2 -3 -4 -4 -4 -3 -4 -3 -2 -2 -3 -3 -2 -3 -4 -4 -4 -5 -6 -7 -7 -8 -8 -7 -7 -8 -8 -9 -10 -11 -11 -11 -11 -11 -12 -14 -14 -14 -15 -15 -15 -14 -14 -12 -12 -12 -12 -12 -13 -12
8 9 10 7 7 6 3 4 2 -1 -4 8 11 10 11 11 11 9 10 10 11 10 8 7 7 6 6 5 5 5 5 4 2 -0 4 -1 -3 -4 -4 -4 -4 -3 -4 -3 -2 -3 -3 -3 -3 -4 -4 -4 -5 -6 -7 -7 -8 -8 -7 -7 -8 -8 -10 -10 -11 -12 -12 -11 -11 -12 -14 -14 -14 -15 -15 -15 -14 -14 -15 -16 -16 -15 -13 -11 -12 -11
8 8 6 5 7 1 0 -1 -7 -7 7 12 12 10 10 12 12 9 10 11 11 8 6 6 6 6 6 5 5 5 3 1 0 0 2 -2 -2 -3 -4 -5 -4 -4 -4 -4 -4 -3 -3 -4 -4 -5 -5 -4 -7 -7 -7 -7 -8 -7 -7 -7 -9 -10 -11 -11 -11 -12 -11 -11 -13 -13 -14 -14 -15 -16 -16 -15 -15 -15 -15 -15 -14 -13 -13 -13 -13 -12
13 4 4 5 2 -3 -1 2 -0 9 9 6 9 9 9 9 11 10 5 7 8 7 6 5 5 5 4 4 4 3 1 -0 -3 -3 -1 -1 -2 -3 -4 -4 -4 -4 -4 -4 -4 -5 -4 -3 -5 -6 -5 -7 -8 -8 -8 -8 -7 -7 -7 -9 -10 -11 -11 -11 -12 -12 -13 -13 -13 -13 -14 -15 -15 -16 -16 -15 -15 -14 -14 -14 -14 -14 -13 -13 -13 -12
14 8 10 4 3 -0 -1 -2 -6 -2 -3 -0 9 10 9 10 11 11 9 6 7 6 6 5 5 4 3 3 2 1 0 -2 -8 -8 -2 -1 -2 -4 -4 -4 -4 -4 -4 -4 -5 -5 -3 -4 -6 -6 -7 -8 -8 -7 -7 -7 -6 -7 -10 -11 -11 -11 -11 -11 -12 -13 -13 -13 -14 -14 -15 -15 -15 -14 -14 -13 -13 -14 -13 -14 -14 -14 -13 -13 -13 -12
11 10 8 7 1 0 -2 -3 -3 -4 -5 9 9 9 9 10 11 11 4 3 8 6 6 5 4 3 2 2 1 1 -0 -4 -5 -2 -0 -2 -3 -4 -4 -4 -5 -4 -4 -5 -5 -4 -5 -6 -6 -6 -7 -8 -8 -8 -7 -7 -7 -10 -11 -12 -11 -11 -11 -12 -14 -14 -13 -14 -14 -13 -13 -14 -13 -13 -13 -14 -14 -14 -15 -15 -14 -13 -12 -12 -13 -12
7 7 8 6 -1 2 -2 -4 -6 -3 -4 9 10 9 10 11 10 3 -8 -3 4 6 6 5 3 2 2 2 2 1 -0 -4 -2 -1 -2 -3 -4 -4 -4 -5 -4 -4 -5 -5 -5 -5 -6 -5 -7 -8 -8 -8 -8 -7 -6 -8 -9 -10 -10 -10 -10 -11 -12 -14 -15 -14 -14 -13 -12 -13 -13 -13 -13 -13 -14 -15 -15 -15 -15 -14 -14 -14 -13 -13 -12 -12
0 1 5 2 1 0 5 -5 -6 -0 11 12 10 10 11 8 5 -5 -7 2 5 5 5 4 3 3 3 2 2 1 1 0 -1 -2 -3 -3 -4 -4 -5 -4 -4 -4 -5 -5 -5 -3 -7 -7 -7 -8 -8 -8 -8 -7 -8 -8 -9 -10 -11 -10 -11 -12 -13 -14 -13 -12 -12 -13 -13 -14 -14 -13 -14 -15 -15 -15 -15 -15 -14 -14 -14 -13 -13 -13 -12 -11
-2 0 2 -4 -0 1 -3 1 -1 -4 11 12 11 11 9 2 -7 -3 8 4 5 5 5 4 3 3 3 1 0 -1 -2 -2 -2 -3 -4 -4 -4 -4 -4 -4 -4 -5 -5 -5 -4 -5 -7 -7 -8 -8 -8 -8 -8 -8 -8 -9 -10 -10 -10 -11 -12 -13 -14 -13 -11 -12 -12 -13 -14 -14 -14 -15 -15 -15 -15 -15 -15 -15 -15 -14 -13 -13 -13 -12 -12 -12
-1 1 -2 -2 -1 -2 -6 -8 -5 -10 1 13 9 9 5 -0 3 4 3 4 6 5 4 4 4 2 -1 -2 -2 -3 -3 -3 -3 -3 -4 -5 -5 -5 -5 -4 -5 -6 -7 -7 -7 -7 -7 -8 -8 -9 -9 -8 -8 -8 -9 -10 -11 -11 -11 -12 -13 -13 -12 -11 -11 -13 -14 -14 -14 -15 -15 -16 -16 -16 -16 -15 -15 -15 -15 -14 -13 -13 -12 -12 -12 -12
4 -2 -4 -5 -2 -0 -9 -6 -5 3 13 13 7 3 3 2 3 4 5 3 4 3 3 3 2 -2 -2 -3 -3 -4 -4 -4 -4 -4 -4 -5 -5 -5 -4 -4 -5 -7 -7 -7 -8 -8 -7 -8 -8 -9 -8 -9 -9 -9 -10 -10 -11 -11 -12 -12 -12 -11 -10 -12 -13 -14 -15 -15 -16 -16 -16 -17 -16 -16 -16 -15 -15 -14 -14 -13 -13 -12 -12 -12 -11 -11
7 -0 -0 0 -0 -1 0 2 13 15 12 11 3 3 4 4 8 7 6 3 2 3 1 -1 -2 -3 -3 -3 -3 -4 -4 -4 -4 -4 -6 -6 -6 -5 -4 -5 -6 -7 -7 -8 -9 -8 -8 -9 -9 -9 -9 -9 -10 -11 -10 -10 -11 -12 -12 -12 -10 -11 -12 -13 -14 -15 -16 -16 -17 -17 -18 -17 -17 -16 -16 -15 -14 -14 -13 -13 -13 -13 -12 -12 -12 -12
8 7 7 5 0 7 8 9 17 13 11 11 6 6 4 5 8 5 3 3 4 1 -1 -2 -3 -3 -3 -3 -4 -4 -4 -4 -4 -6 -7 -7 -6 -5 -5 -6 -7 -7 -8 -9 -9 -9 -8 -9 -9 -9 -9 -10 -11 -11 -11 -11 -11 -12 -12 -11 -10 -12 -13 -14 -15 -16 -17 -17 -18 -18 -18 -18 -17 -17 -15 -14 -14 -13 -13 -12 -12 -13 -13 -12 -12 -11
8 8 7 3 7 4 -3 12 10 9 9 10 8 5 5 6 6 5 4 4 2 -0 -1 -2 -3 -3 -3 -4 -4 -4 -4 -4 -5 -7 -7 -7 -6 -6 -7 -7 -8 -9 -9 -9 -9 -8 -9 -9 -10 -9 -9 -11 -11 -11 -11 -11 -12 -11 -11 -11 -12 -13 -14 -15 -16 -17 -17 -18 -19 -19 -18 -18 -17 -16 -15 -14 -14 -13 -12 -12 -13 -13 -12 -12 -12 -11
2 9 7 8 8 6 4 7 9 9 9 11 6 2 1 4 5 4 5 1 0 -1 -3 -3 -3 -4 -4 -5 -4 -4 -4 -5 -6 -7 -7 -7 -6 -7 -7 -8 -9 -10 -9 -9 -9 -8 -9 -10 -9 -10 -11 -11 -12 -12 -12 -12 -12 -11 -12 -12 -13 -14 -15 -16 -16 -17 -18 -19 -19 -19 -18 -17 -15 -15 -15 -14 -13 -14 -13 -13 -13 -12 -12 -12 -11 -10
7 10 2 8 8 8 8 8 9 8 8 11 7 1 2 7 4 3 1 -1 -3 -4 -4 -3 -4 -4 -4 -5 -4 -4 -5 -5 -6 -7 -7 -7 -7 -8 -9 -9 -9 -10 -10 -9 -9 -9 -10 -9 -9 -10 -11 -12 -12 -12 -12 -12 -12 -12 -12 -13 -14 -14 -16 -16 -17 -18 -19 -19 -19 -19 -17 -16 -16 -15 -15 -14 -13 -13 -13 -13 -12 -12 -11 -10 -8 -8
9 4 8 5 0 -1 2 6 8 4 2 6 5 0 4 4 2 0 -1 -3 -4 -3 -3 -4 -5 -4 -4 -5 -4 -4 -5 -6 -7 -7 -7 -8 -8 -9 -9 -10 -10 -10 -9 -9 -10 -10 -10 -9 -10 -11 -12 -12 -12 -12 -12 -12 -12 -13 -14 -14 -14 -15 -16 -17 -18 -19 -20 -19 -19 -19 -17 -16 -16 -15 -14 -14 -14 -14 -13 -11 -9 -9 -10 -10 -6 -4
7 8 8 2 1 3 7 9 8 5 4 4 1 2 5 1 0 -1 -3 -4 -4 -3 -3 -5 -5 -5 -5 -5 -4 -5 -6 -7 -7 -7 -8 -8 -9 -9 -9 -10 -10 -9 -9 -10 -10 -10 -10 -10 -11 -12 -13 -13 -12 -12 -12 -13 -13 -14 -15 -14 -14 -15 -17 -18 -18 -19 -20 -19 -19 -18 -17 -16 -16 -15 -14 -14 -14 -14 -14 -14 -13 0 -7 -6 -5 -4